www.pogodaiklimat.ru

Погода и климат >> Архив погоды >> Боливия >> Santa Rosa


ПОГОДА в Santa Rosa

  • Прогноз погоды в Santa Rosa
  • Монитор погоды в Santa Rosa
  • Климат города

АРХИВ ПОГОДЫ в Santa Rosa

Время (UTC), дата Ветер
(напр.,м/с)
 
Видим.   Явления Облачность Т
(С)
Тd
(С)
f
(%)
Тe
(С)
Тes
(С)
Комфортность P
(гПа)
Po
(гПа)
Тmin
(С)
Tmax
(С)
R
(мм)
R24
(мм)
S
(см)
12 16.01 штиль 0 15 км 8/5 450 м
[Sc Ac trans]
+23.4 +22.0 92 +32 +34 очень
душно
1011.0 991.4 +22.8 10
15 16.01 штиль 0 8000 м осадки на расстоянии 8/6 450 м
[Cb cap Ac trans]
+27.0 +22.0 74 +35 +42 очень
душно
1014.0 994.6
18 16.01 штиль 0 7000 м осадки на расстоянии 9/6 450 м
[Cb cap Ac trans]
+26.7 +22.3 77 +35 +41 очень
душно
1013.1 993.6
12 17.01 СЗ 2 15 км 9/3 300 м
[Sc Ac trans]
+24.2 +23.4 95 +32 +34 очень
душно
1012.0 992.6 +22.4
15 17.01 СЗ 4 15 км 8/5 450 м
[Sc Ac trans]
+26.0 +24.0 89 +36 +40 очень
душно
1013.5 994.0
18 17.01 СЗ 4 15 км 6/6 500 м
[Cu med, cong]
+29.4 +24.1 73 +41 +46 опасность
перегрева
1010.4 991.0
21 17.01 СЗ 2 15 км 5/3 500 м
[Cu med, cong Ci fib]
+30.8 +23.6 66 +42 +45 опасность
перегрева
1007.1 988.0 +31.0
12 18.01 штиль 0 15 км 5/0 2000 м
[Ac trans]
+24.0 +22.6 92 +31 +36 очень
душно
1010.8 991.4 +22.8
15 18.01 С 3 15 км 5/5 500 м
[Cu med, cong]
+30.4 +23.1 65 +41 +49 опасность
перегрева
1013.6 994.2
18 18.01 С 3 15 км 5/5 500 м
[Cb cap]
+32.0 +23.3 60 +43 +51 опасность
перегрева
1010.5 991.0
21 18.01 СЗ 6 6000 м осадки на расстоянии 8/8 450 м
[Cb cap Ci]
+31.0 +23.9 66 +43 +43 опасность
перегрева
1007.8 988.5 +33.8
12 19.01 штиль 0 15 км 8/5 300 м
[Sc Ac trans]
+25.0 +23.9 94 +34 +36 очень
душно
1013.0 993.5 +22.5 31
15 19.01 штиль 0 15 км 4/3 450 м
[Cu hum Ac trans]
+29.2 +25.0 78 +42 +59 опасность
перегрева
1014.0 994.6
18 19.01 штиль 0 15 км 6/6 500 м
[Cb cap]
+32.4 +23.9 61 +44 +54 опасность
перегрева
1011.1 991.8
21 19.01 штиль 0 15 км 6/6 500 м
[Cb cap]
+32.4 +23.9 61 +44 +46 опасность
перегрева
1007.3 988.2 +33.3
12 20.01 штиль 0 2000 м гроза, ливневой дождь 10/9 240 м
[Cb cap As op]
+22.2 +22.2 100 +30 +30 очень
душно
1012.6 993.2 +21.4 7
15 20.01 СЗ 4 15 км 8/4 450 м
[Cu hum Ci]
+27.2 +24.5 85 +38 +45 очень
душно
1013.5 994.1
18 20.01 СЗ 4 15 км 8/4 500 м
[Cu hum Ci]
+30.0 +24.7 73 +43 +49 опасность
перегрева
1011.5 992.0 4
21 20.01 СЗ 3 15 км 8/1 500 м
[Cu hum Ci]
+29.2 +25.0 78 +42 +45 опасность
перегрева
1006.8 987.5 +31.5
12 21.01 СЗ 2 15 км 8/1 300 м
[Cu hum Ci fib]
+26.2 +24.0 88 +36 +39 очень
душно
1010.6 991.2 +22.8 4
15 21.01 СЗ 5 15 км 5/3 450 м
[Cu hum Ci fib]
+30.4 +24.8 72 +43 +50 опасность
перегрева
1011.5 992.1
18 21.01 СЗ 5 15 км 4/4 500 м
[Cu med, cong]
+32.5 +24.2 62 +45 +51 опасность
перегрева
1008.6 989.2
21 21.01 СЗ 3 15 км 5/4 500 м
[Cb cap Ci fib]
+32.0 +24.5 65 +45 +47 опасность
перегрева
1004.6 985.3 +33.6
12 22.01 С 3 15 км 3/0 2000 м
[Ac trans]
+26.3 +22.8 81 +35 +38 очень
душно
1009.8 990.5 +23.7
15 22.01 С 4 15 км 1/1 500 м
[Cu hum]
+30.4 +23.4 66 +41 +52 опасность
перегрева
1010.6 991.2
18 22.01 СЗ 6 15 км 5/5 500 м
[Cu med, cong]
+32.6 +22.8 56 +42 +46 опасность
перегрева
1006.5 987.2
21 22.01 СЗ 4 15 км 5/5 500 м
[Cb cap Ci fib]
+32.4 +24.2 62 +45 +46 опасность
перегрева
1002.5 983.2 +34.4

 

Местоположение метеостанции Santa Rosa (Боливия): широта -14.17 долгота -66.90 высота над уровнем моря 225 м.

В архиве по умолчанию представлена погода в Santa Rosa за последнюю неделю. Архивные данные за месяц целиком и за предыдущие месяцы, начиная с января 2011 года, Вы можете получить, выбрав интересующий диапазон дат из раскрывающегося списка и нажав кнопку "Ввод!".

Внимание! Время в таблицах - всемирное. Для получения местного времени необходимо прибавить поправку, которая в Santa Rosa равна -4 ч.

Смотрите также архив погоды в соседних городах и на ближайших метеорологических станциях:

Погода в Reyes (Боливия) (54 км)
Погода в San Borja (Боливия) (77 км)
Погода в Rurrenabaque (Боливия) (78 км)
Погода в San Ignacio De Moxo (Боливия) (162 км)
Погода в Santa Ana (Боливия) (165 км)
Погода в Baures (Боливия) (165 км)
Погода в Trinidad (Боливия) (226 км)
Погода в San Ramon (Боливия) (257 км)
Погода в San Joaquin (Боливия) (257 км)
Погода в Ovejuyo (Боливия) (289 км)

Пояснения к столбцам:

Ветер - указаны скорость ветра в м/с - средняя за 10 мин, порывы в срок и между сроками (в фигурных скобках) и направление, откуда дует ветер: С - северный, СВ - северо-восточный, В - восточный, ЮВ - юго-восточный, Ю - южный, ЮЗ - юго-западный, З - западный, СЗ - северо-западный.
Видимость - горизонтальная дальность видимости в метрах или километрах. При видимости от 1 до 10 км при отсутствии осадков обычно наблюдается дымка, при ухудшении видимости до 1 км и менее - туман. В сухую погоду видимость может ухудшаться дымом, пылью или мглою.
Явления - указаны атмосферные явления, наблюдавшиеся в срок или в последний час перед сроком; фигурными скобками обозначены явления, наблюдавшиеся между сроками (за 1-3 часа до срока); квадратными скобками обозначены град или гололедные отложения с указанием их диаметра в мм.
Облачность - указаны через наклонную черту общая и нижняя облачность в баллах и высота нижней границы облаков в метрах; квадратными скобками обозначены формы облаков: Ci - перистые, Cs - перисто-слоистые, Cc - перисто-кучевые, Ac - высококучевые, As - высокослоистые, Sc - слоисто-кучевые, Ns - слоисто-дождевые, Cu - кучевые, Cb - кучево-дождевые. Подробнее классификацию облаков см. в Атласе облаков (PDF).
T - Температура воздуха - температура, измеренная на высоте 2 м над землей.
Td - Температура точки росы - температура, при понижении до которой содержащийся в воздухе водяной пар достигнет насыщения.
f - Относительная влажность воздуха - влажноcть воздуха, измеренная на высоте 2 м над землей.
Te - Эффективная температура - температура, которую ощущает одетый по сезону человек в тени. Характеристика душности погоды. При расчете учитывается влияние влажности воздуха и скорости ветра на теплоощущения человека.
Tes - Эффективная температура на солнце - температура, которую ощущает человек, с поправкой на солнечный нагрев. Характеристика знойности погоды. Зависит от высоты солнца над горизонтом, облачности и скорости ветра. Ночью, в пасмурную погоду, а также при ветре 12 м/с и более поправка равна нулю.
P - Атмосферное давление - приведенное к уровню моря атмосферное давление.
Po - Атмосферное давление - измеренное на уровне метеостанции атмосферное давление.
Tmin - Минимальная температура - минимум температуры воздуха на высоте 2 м над землей.
Tmax - Максимальная температура - максимум температуры воздуха на высоте 2 м над землей.
R - Количество осадков - Количество выпавших осадков за период времени, мм. При наведении курсора мыши на число - период времени, за который выпало указанное количество осадков.
R24 - Количество осадков - Количество выпавших осадков за 24 часа, мм.
S - Снежный покров - Высота снежного покрова, см. При наведении курсора мыши на число - состояние снежного покрова и степень покрытия местности в баллах.